This is the latest recevied weather packets stored in our database for station/object WW1TA. If no packets are shown the sender has not sent any weather packets the latest 10 day(s).
| Time | Temp. | Humidity | Pressure | Rain* | Wind** | Luminosity | Snow |
|---|---|---|---|---|---|---|---|
| 1777672019 | 18.89° C | 96% | 1013.3 hPa | 0 mm | - | 59 W/m² | - |
| 1777671412 | 18.89° C | 95% | 1013.6 hPa | 0 mm | - | 60 W/m² | - |
| 1777671108 | 18.89° C | 95% | 1013.7 hPa | 0 mm | - | 56 W/m² | - |
| 1777670501 | 18.89° C | 95% | 1013.3 hPa | 0 mm | - | 71 W/m² | - |
| 1777670198 | 18.89° C | 95% | 1013.4 hPa | 0 mm | - | 61 W/m² | - |
| 1777669896 | 18.89° C | 95% | 1013.4 hPa | 0 mm | - | 141 W/m² | - |
| 1777669592 | 18.89° C | 95% | 1013.3 hPa | 0.51 mm | - | 109 W/m² | - |
| 1777669289 | 18.89° C | 95% | 1013.5 hPa | 1.78 mm | - | 88 W/m² | - |
| 1777668985 | 18.89° C | 94% | 1013.5 hPa | 2.29 mm | - | 115 W/m² | - |
| 1777668683 | 18.89° C | 94% | 1013.5 hPa | 1.27 mm | - | 125 W/m² | - |
| 1777667772 | 18.89° C | 94% | 1013.4 hPa | 0 mm | - | 53 W/m² | - |
| 1777667470 | 18.89° C | 93% | 1013.5 hPa | 0 mm | - | 46 W/m² | - |
| 1777667167 | 18.89° C | 93% | 1013.4 hPa | 0 mm | - | 66 W/m² | - |
| 1777666560 | 18.89° C | 92% | 1013.5 hPa | 0 mm | - | 119 W/m² | - |
| 1777666256 | 18.89° C | 92% | 1013.8 hPa | 0 mm | - | 111 W/m² | - |
| 1777665954 | 18.89° C | 91% | 1013.7 hPa | 0.51 mm | - | 99 W/m² | - |
| 1777665651 | 18.89° C | 91% | 1013.7 hPa | 0.51 mm | - | 109 W/m² | - |
| 1777665349 | 18.89° C | 90% | 1013.9 hPa | 1.27 mm | - | 144 W/m² | - |
| 1777665044 | 18.89° C | 90% | 1014 hPa | 3.05 mm | - | 119 W/m² | - |
| 1777664436 | 19.44° C | 85% | 1014.4 hPa | 1.27 mm | - | 110 W/m² | - |
| 1777664133 | 19.44° C | 84% | 1014.5 hPa | 0 mm | - | 100 W/m² | - |
| 1777663832 | 19.44° C | 84% | 1014.4 hPa | 0 mm | - | 69 W/m² | - |
| 1777663226 | 19.44° C | 84% | 1014.5 hPa | 0 mm | - | 34 W/m² | - |
| 1777662923 | 19.44° C | 84% | 1014.5 hPa | 0 mm | - | 53 W/m² | - |
| 1777660492 | 19.44° C | 82% | 1014.7 hPa | 0 mm | - | 100 W/m² | - |
* Rain latest hour (hover to see other rain measurements)
** Current wind speed in m/s (hover to see current wind gust speed)